Lid_Strength_Index
4 4 4 4 4 4 4 4 4 4 4 4 4 5 5 6 5 5 5 4 5 5 4 4 4 4 6 10 9 1 -2 -1 1 3 3 4 6 7 9 8 7 9 7 6 6 6 6
4 4 4 4 4 4 4 4 4 4 4 4 5 5 5 5 6 5 5 5 5 5 5 4 4 3 6 10 3 -0 0 2 4 4 3 3 5 5 7 8 8 7 7 6 6 6 6
4 4 4 4 5 5 4 5 5 5 5 5 5 5 5 5 5 5 5 5 5 5 5 4 3 4 8 10 3 1 3 4 3 3 3 2 3 5 6 8 5 6 8 7 7 6 7
4 4 5 5 5 5 5 5 5 5 5 5 6 6 6 5 5 5 5 5 5 5 5 4 3 5 12 7 4 4 4 4 3 3 3 3 2 5 6 5 6 8 9 12 7 7 6
5 5 5 5 5 5 5 5 5 5 5 5 6 6 6 6 6 6 6 5 4 4 4 3 7 10 10 3 6 6 4 3 3 4 4 2 3 6 6 9 11 10 13 11 10 7 7
5 5 5 5 5 6 6 6 6 6 6 6 6 6 6 6 6 6 6 5 4 4 4 3 5 10 8 7 6 4 4 2 3 4 4 5 6 9 9 11 16 13 13 11 11 8 8
5 5 5 5 6 6 6 6 6 6 6 6 6 6 6 6 6 7 8 8 10 10 8 11 10 10 7 6 6 5 3 3 4 6 9 7 10 11 10 9 9 10 11 11 9 8 9
5 5 5 5 6 6 6 6 6 6 6 6 6 6 6 6 6 7 9 11 9 9 11 8 8 8 8 8 9 9 3 5 6 9 8 9 11 8 7 8 9 10 11 11 10 8 9
5 5 5 6 6 6 6 6 6 6 6 6 6 6 6 6 6 9 11 11 9 9 12 9 8 8 8 8 9 9 5 5 7 9 9 11 9 7 9 10 10 10 11 11 11 10 9
5 5 5 5 6 6 6 6 6 6 5 5 6 6 6 7 9 9 10 9 8 10 14 11 10 8 7 8 9 7 4 5 7 9 8 10 9 9 10 11 9 13 7 8 10 12 15
5 5 5 5 5 5 5 6 6 5 5 5 5 6 7 7 10 10 9 7 8 9 17 9 10 6 9 8 9 7 5 6 8 8 9 9 10 10 11 10 9 11 9 9 10 12 13
5 5 5 5 5 5 5 5 5 5 5 5 6 6 7 8 10 8 7 8 9 13 16 10 10 10 11 10 9 8 7 5 5 8 9 8 7 9 10 9 9 9 10 11 13 13 16
5 5 5 4 4 5 5 4 4 5 5 5 6 7 7 7 11 8 8 9 13 15 9 11 12 12 13 12 11 10 10 11 10 12 12 8 9 11 9 11 10 10 13 15 15 16 16
4 5 5 5 5 5 5 4 5 5 5 6 6 6 8 8 9 7 9 11 15 12 11 9 10 12 12 12 11 11 11 12 11 10 12 13 13 10 10 10 12 13 12 15 18 18 16
4 5 5 5 5 5 5 5 5 5 5 6 6 9 8 8 7 8 9 14 13 11 9 9 10 13 14 12 12 12 13 13 11 10 13 14 12 9 9 10 10 12 12 12 14 15 16
5 4 4 4 4 5 4 5 5 5 6 6 9 8 7 6 6 9 11 13 11 9 9 10 12 11 13 11 13 13 13 11 10 10 10 11 13 10 9 9 10 10 10 13 14 17 18
4 4 4 4 4 4 4 5 5 5 6 6 9 8 6 5 8 10 13 13 10 8 8 11 12 12 11 11 11 15 12 10 10 11 9 11 12 10 11 12 12 12 13 13 13 14 16
4 4 4 4 4 4 4 4 5 5 6 8 10 9 6 8 12 14 14 11 9 9 10 11 10 11 11 11 12 11 11 11 8 11 11 11 13 13 11 11 11 12 13 14 15 16 16
4 4 4 3 3 4 4 4 5 5 6 8 10 10 6 8 12 13 12 10 10 11 11 11 11 10 11 12 13 11 9 7 7 10 13 12 15 16 14 12 12 12 12 14 15 16 16
4 4 3 3 3 3 3 4 4 5 5 8 9 9 8 9 11 11 11 10 10 8 9 9 11 11 13 12 11 11 11 8 7 7 5 9 15 14 14 14 12 12 11 11 13 15 15
4 4 3 3 3 3 3 3 4 5 5 8 7 10 9 10 9 10 9 9 9 9 8 9 10 11 12 14 13 12 10 10 8 6 8 12 14 13 13 11 11 11 10 11 12 13 14
4 4 3 3 3 3 3 3 4 4 5 7 8 9 9 12 10 10 12 10 9 8 9 10 11 9 11 12 11 12 10 10 11 10 10 10 12 11 13 10 10 11 10 10 10 11 12
4 4 4 3 3 3 3 3 4 5 6 10 8 7 9 11 11 11 11 10 9 9 8 7 9 9 9 9 8 9 9 9 9 10 10 11 12 13 14 11 11 13 12 11 10 10 11
4 4 4 3 3 3 3 3 3 4 5 7 9 9 10 11 11 11 10 9 9 9 9 7 7 9 7 6 8 9 10 10 10 9 9 11 12 13 14 13 17 12 9 9 10 10 10
4 4 4 3 3 3 3 3 3 3 4 7 8 8 11 13 10 9 10 11 10 9 9 7 6 6 7 9 10 12 12 12 11 10 10 9 12 14 15 16 13 11 9 10 11 12 9
4 4 4 4 4 3 3 3 3 3 4 8 8 7 9 11 12 8 9 10 12 12 10 8 6 7 8 10 11 14 14 13 13 12 10 10 10 12 15 16 16 11 8 7 8 14 8
4 4 4 4 3 4 3 3 3 3 4 6 8 7 7 10 9 9 10 11 9 11 11 10 10 8 7 11 12 13 13 11 13 13 12 12 13 14 15 15 13 9 7 7 14 12 9
4 4 4 4 3 3 3 3 3 3 3 5 8 7 7 9 8 6 6 9 9 10 11 10 9 9 9 12 13 12 13 12 12 12 13 13 14 15 14 17 16 8 8 12 9 9 8
4 4 4 3 4 4 4 4 3 3 3 4 9 7 5 8 8 6 4 4 5 6 9 10 9 9 9 12 11 11 12 12 13 14 11 13 11 13 12 13 9 8 9 8 7 8 8